SCP
0 0 0 0 0 0 0 0 0 0 0 0 0 0 -0 -0 -0 -0 0 0 0 0 -0 -0 -0 -0 -0 -0 0 0 0 0 0 0 0 0 0 0 0 0 0 0 0 0 0
0 0 0 0 0 0 0 0 0 0 0 0 0 -0 -0 -0 0 0 0 0 -0 0 -0 0 0 0 0 0 0 0 0 0 0 0 0 0 0 0 0 0 0 0 0 0 0
-0 -0 0 0 0 0 0 0 0 0 0 0 0 -0 -0 0 0 -0 -0 -0 -0 -0 0 0 0 0 0 0 0 0 0 0 0 0 0 0 0 0 0 0 0 0 0 0 0
-0 -0 -0 0 0 0 0 0 0 0 0 0 0 -0 -0 0 0 0 0 0 0 -0 0 0 0 0 0 0 0 0 0 0 0 0 0 0 0 0 0 0 0 0 0 0 0
-0 -0 -0 0 0 0 0 0 0 0 0 0 0 -0 0 0 -0 0 0 0 0 0 0 0 0 0 0 0 0 0 0 0 0 0 0 0 0 0 0 0 0 0 0 0 0
-0 -0 -0 0 0 0 0 0 0 0 0 0 0 -0 0 0 0 0 0 0 0 0 0 0 0 0 0 0 0 0 0 0 0 0 0 0 0 0 0 0 0 0 0 0 0
-0 -0 -0 -0 0 0 0 0 0 0 -0 0 0 0 0 0 0 0 0 0 0 0 0 0 0 0 0 0 0 0 0 0 0 0 0 0 0 0 0 0 0 0 0 0 0
-0 -0 -0 -0 0 0 0 0 0 0 0 0 0 0 0 0 0 0 0 0 0 0 0 0 0 0 0 0 0 0 0 0 0 0 0 0 0 0 0 0 0 0 0 0 0
-0 -0 -0 -0 0 0 0 -0 -0 0 0 0 0 0 0 0 0 0 0 0 0 0 0 0 0 0 0 0 0 0 0 0 0 0 0 0 0 0 0 0 0 0 0 0 0
-0 -0 -0 -0 0 0 0 -0 0 0 0 0 0 0 0 0 0 0 0 0 0 0 0 0 0 0 0 0 0 0 0 0 0 0 0 0 0 0 0 0 0 0 0 0 0
-0 -0 -0 -0 0 0 0 0 0 0 0 0 0 0 0 0 0 0 0 0 0 0 0 0 0 0 0 0 0 0 0 0 0 0 0 0 0 0 0 0 0 0 0 0 0
-0 -0 -0 -0 0 -0 0 0 0 0 0 0 0 0 0 0 0 0 0 0 0 0 0 0 0 0 0 0 0 0 0 0 0 0 0 0 0 0 0 0 0 0 0 0 0
-0 -0 -0 -0 0 0 0 0 0 0 0 0 0 0 0 0 0 0 0 0 0 0 0 0 0 0 0 0 0 0 0 0 0 0 0 0 0 0 0 0 0 0 0 0 0
-0 -0 -0 0 0 0 0 0 0 0 0 0 0 0 0 0 0 0 0 0 0 0 0 0 0 0 0 0 0 0 0 0 0 0 0 0 0 0 0 0 0 0 0 0 0
-0 -0 0 0 0 0 0 0 0 0 0 0 0 0 0 0 0 0 0 0 0 0 0 0 0 0 0 0 0 0 0 0 0 0 0 0 0 0 0 0 0 0 0 0 0
-0 0 0 0 0 0 0 0 0 0 0 0 0 0 0 0 0 0 0 0 0 0 0 0 0 0 0 0 0 0 0 0 0 0 0 0 0 0 0 0 0 0 0 0 0
0 0 0 0 0 0 0 0 0 0 0 0 0 0 0 0 0 0 0 0 0 0 0 0 0 0 0 0 0 0 0 0 0 0 0 0 0 0 0 0 0 0 0 0 0
0 0 0 0 0 0 0 0 0 0 0 0 0 0 0 0 0 0 0 0 0 0 0 0 0 0 0 0 0 0 0 0 0 0 0 0 0 0 0 0 0 0 0 0 0
0 0 0 0 0 0 0 0 0 0 0 0 0 0 0 0 0 0 0 0 0 0 0 0 0 0 0 0 0 0 0 0 0 0 0 0 0 0 0 0 0 0 0 0 0
0 0 0 0 0 0 0 0 0 0 0 0 0 0 0 0 0 0 0 0 0 0 0 0 0 0 0 0 0 0 0 0 0 0 0 0 0 0 0 0 0 0 0 0 0
0 0 0 0 0 0 0 0 0 0 0 0 0 0 0 0 0 0 0 0 0 0 0 0 0 0 0 0 0 0 0 0 0 0 0 0 0 0 0 0 0 0 0 0 0
0 0 0 0 0 0 0 0 0 0 0 0 0 0 0 0 0 0 0 0 0 0 0 0 0 0 0 0 0 0 0 0 0 0 0 0 0 0 0 0 0 0 0 0 0
-0 0 0 0 0 0 0 0 0 0 0 0 0 0 0 0 0 0 0 0 0 0 0 0 0 0 0 0 0 0 0 0 0 0 0 0 0 0 0 0 0 0 0 0 0
0 0 0 0 0 0 0 0 0 0 0 0 0 0 0 0 0 0 0 0 0 0 0 0 0 0 0 0 0 0 0 0 0 0 0 0 0 0 0 0 0 0 0 0 0
0 0 0 0 0 0 0 0 0 0 0 0 0 0 0 0 0 0 0 0 0 0 0 0 0 0 0 0 0 0 0 0 0 0 0 0 0 0 0 0 0 0 0 0 0
-0 0 0 0 0 0 0 0 0 0 0 0 0 0 0 0 0 0 0 0 0 0 0 0 0 0 0 0 0 0 0 0 0 0 0 0 0 0 0 0 0 0 0 0 0
0 0 0 -0 0 0 0 0 0 0 0 0 0 0 0 0 0 0 0 0 0 0 0 0 0 0 0 0 0 0 0 0 0 0 0 0 0 0 0 0 0 0 0 0 0
Wind_Speed_500mb
6 2 2 5 6 6 7 8 8 8 8 10 15 19 18 16 13 13 9 9 8 5 6 9 12 9 7 7 6 7 5 5 8 10 7 12 10 10 8 12 19 21 21 14 13
9 5 2 4 6 6 7 7 7 8 7 8 12 18 18 16 15 17 10 7 2 6 9 12 12 7 6 8 6 7 6 13 9 9 7 8 13 9 8 14 18 32 37 31 25
11 7 4 5 5 6 7 8 7 6 4 4 10 13 10 10 11 6 6 4 3 5 10 12 11 8 6 6 7 6 9 6 7 14 10 8 7 15 12 12 35 39 47 43 37
14 8 5 4 5 7 9 7 6 5 5 5 8 13 12 9 3 4 6 5 4 5 12 13 11 6 6 7 8 3 12 9 6 13 10 7 7 9 35 35 13 13 26 37 46
21 15 11 8 8 9 9 6 6 7 10 9 13 16 13 10 13 10 8 8 7 7 13 15 14 10 6 8 7 7 6 10 12 13 17 13 20 16 39 49 47 34 28 32 40
26 19 15 11 11 10 9 9 9 11 12 18 21 18 13 9 9 8 9 9 9 9 10 16 10 13 6 7 9 8 8 13 13 15 15 9 7 3 15 8 33 48 47 41 43
35 26 20 16 14 13 11 12 13 13 13 17 17 16 19 23 13 9 7 11 9 8 8 10 12 12 8 3 5 2 9 8 13 9 7 6 12 19 39 16 17 25 31 38 42
41 36 28 18 12 11 13 16 17 19 17 13 12 15 15 15 19 15 9 10 11 8 7 8 7 8 4 3 6 3 4 5 4 11 4 7 17 11 7 21 37 32 30 35 45
39 39 36 21 10 11 15 17 19 21 23 23 23 15 14 12 20 18 12 7 13 10 9 8 8 5 5 6 7 7 6 7 13 14 5 8 16 12 8 20 39 42 43 40 41
39 38 37 26 13 21 14 14 18 21 21 23 24 12 20 10 14 15 13 10 11 11 7 8 4 4 5 6 9 9 7 8 9 6 6 8 34 36 45 50 56 55 61 56 49
38 36 35 32 16 22 17 10 6 7 18 19 10 9 5 13 12 13 15 12 12 9 8 2 4 15 19 15 3 3 6 9 8 5 6 14 27 37 41 39 38 59 59 59 56
39 37 34 29 18 20 16 8 8 9 18 31 42 33 21 14 9 18 19 14 11 10 8 4 16 9 6 8 7 6 4 11 10 3 7 11 28 33 41 19 29 28 22 28 39
42 40 36 30 17 16 13 14 16 18 7 10 16 16 15 20 11 15 21 11 8 10 12 12 4 8 7 6 7 7 10 9 11 7 4 12 15 10 7 5 10 18 17 14 35
42 41 39 33 10 22 11 20 20 16 7 9 6 5 11 11 6 14 20 9 3 13 12 11 2 10 7 10 14 7 10 6 2 5 7 6 13 10 13 16 8 15 15 11 22
42 41 39 33 24 18 17 20 17 7 8 4 6 8 10 10 5 9 16 11 9 11 10 13 14 10 10 14 16 12 5 7 4 4 5 3 4 13 4 9 1 10 5 4 13
42 41 39 35 26 14 17 16 7 10 13 3 6 4 4 7 5 8 7 8 3 4 5 12 2 11 14 5 8 12 9 9 7 5 4 11 12 8 8 10 6 2 5 6 8
44 41 40 33 19 18 14 8 8 8 5 5 6 6 6 9 7 11 10 8 11 3 9 4 9 4 7 8 2 5 9 5 5 1 12 5 5 16 8 6 3 2 4 7 13
46 41 39 28 23 14 7 7 9 9 12 5 3 3 10 11 7 7 5 7 11 4 3 9 13 16 11 12 14 12 14 10 15 8 7 3 14 11 1 9 9 11 11 13 16
48 42 37 25 9 6 5 4 15 14 5 3 2 6 6 3 7 5 12 11 14 20 18 12 13 3 4 4 4 9 10 5 2 4 4 9 13 13 7 4 7 11 16 15 18
51 41 20 5 5 6 5 11 10 8 3 1 10 12 13 7 6 7 10 8 9 19 2 5 11 5 7 6 4 8 7 6 3 7 12 10 12 14 12 21 16 16 19 20 21
47 21 8 6 11 7 7 14 11 13 7 10 8 9 13 8 12 11 10 8 12 7 7 10 9 6 10 15 20 5 6 3 5 8 12 21 18 11 11 16 29 20 30 30 28
22 6 14 30 4 1 4 7 7 7 4 10 5 13 13 14 13 16 20 19 22 19 16 14 10 16 25 4 5 10 19 19 12 15 11 5 37 1 5 9 26 32 38 36 32
23 16 8 4 4 5 8 8 8 7 10 5 5 11 3 8 9 16 14 16 24 18 16 14 8 10 13 4 6 10 10 10 1 5 45 26 28 2 1 4 17 39 45 42 40
12 7 11 4 4 5 7 10 8 10 10 8 7 6 9 17 15 14 8 9 14 17 14 19 13 17 34 14 9 9 13 16 27 21 29 39 49 44 14 19 21 34 49 41 38
10 7 15 8 12 22 18 11 22 15 24 25 4 27 17 10 7 12 10 10 8 8 6 7 18 11 31 35 23 37 41 42 39 40 35 46 39 55 32 31 40 45 43 42 41
13 14 18 21 32 19 10 3 14 13 17 13 15 38 31 14 24 13 17 10 12 4 27 12 20 32 43 54 46 51 52 51 47 52 46 56 60 53 22 16 36 53 54 47 46
19 10 4 12 13 8 7 13 17 21 14 17 26 25 25 25 39 54 55 48 42 33 29 11 7 13 40 34 29 31 45 51 45 43 32 48 52 14 5 14 15 33 38 43 46
Wind_Direction_500mb
57 102 216 244 267 275 270 276 268 258 261 263 277 293 299 297 266 284 277 286 276 218 173 174 171 175 177 184 174 145 76 231 235 163 241 170 193 197 213 216 207 210 224 217 199
41 36 338 287 282 270 267 267 257 250 261 281 296 298 292 291 265 263 284 293 265 191 188 178 175 183 183 178 178 127 148 220 201 194 218 200 199 200 200 219 234 232 231 228 221
22 7 328 286 267 264 266 256 242 237 247 289 314 313 298 304 288 246 257 273 251 199 191 190 195 193 190 191 201 168 207 208 239 219 208 207 234 220 205 240 230 231 234 226 221
17 4 335 296 280 274 261 245 234 226 230 284 317 329 305 299 246 234 268 241 231 213 195 196 196 186 169 204 188 218 241 202 226 211 187 202 229 243 218 240 236 251 244 230 223
14 1 347 327 292 266 258 245 235 252 241 260 302 313 307 271 258 269 254 232 231 227 210 205 205 195 199 195 172 198 244 224 242 228 229 241 243 245 259 257 251 248 233 235 232
14 5 347 317 287 269 259 248 253 269 260 267 288 297 280 253 240 259 246 237 236 229 222 211 219 213 216 204 182 205 254 256 258 241 236 219 245 205 265 257 229 237 242 239 233
18 7 349 318 288 270 259 258 263 266 275 285 283 291 268 260 239 249 255 227 223 222 228 211 208 198 182 204 233 267 310 302 219 213 240 194 275 233 251 249 222 224 229 230 227
14 10 358 346 314 278 268 261 262 262 267 266 290 290 262 250 229 242 250 231 219 216 209 198 191 201 211 171 14 14 59 333 182 161 188 164 270 266 265 222 238 241 233 230 226
6 5 2 352 353 344 295 276 270 268 260 260 276 267 260 237 224 229 235 241 215 222 211 209 190 182 131 96 353 359 239 223 311 202 135 179 271 259 246 237 250 242 242 238 236
360 359 1 360 349 339 325 299 275 267 256 257 245 268 233 224 207 214 228 226 200 190 186 192 170 87 60 121 232 211 230 245 243 209 205 224 261 273 264 260 257 261 260 247 242
359 356 354 356 337 350 347 327 312 266 233 223 217 218 177 205 218 230 215 197 183 184 187 151 120 219 214 201 195 175 203 239 243 222 236 230 265 276 281 243 253 261 263 259 247
359 357 352 350 342 352 356 357 353 306 298 251 242 238 245 236 241 217 199 190 171 199 131 38 236 220 136 155 171 183 226 257 275 222 189 312 282 276 278 256 239 260 258 259 227
354 355 355 348 342 348 348 2 340 328 271 270 229 233 229 220 232 209 195 189 174 176 190 183 214 119 148 157 168 218 197 226 233 325 223 318 279 301 296 263 271 259 260 262 217
351 352 352 352 347 339 337 339 335 334 33 262 221 217 190 195 254 192 192 196 188 205 172 232 226 178 182 225 157 253 208 163 186 54 251 1 289 296 285 305 283 313 228 248 214
346 345 347 348 333 325 322 328 331 350 347 195 179 172 184 191 152 205 192 189 207 193 143 247 171 179 189 217 165 224 135 143 102 149 12 253 255 266 288 294 23 3 82 229 208
341 339 338 337 326 317 318 324 327 44 254 227 150 172 157 209 219 151 177 198 149 176 243 245 222 182 207 134 168 140 89 57 59 103 262 213 190 268 205 209 191 91 76 77 164
338 337 333 328 318 309 312 312 30 161 327 202 218 175 213 207 219 180 173 186 192 181 245 262 218 206 169 111 51 136 92 308 303 226 234 154 187 257 260 232 266 291 118 108 142
335 335 330 317 306 297 291 54 206 240 249 317 95 155 215 160 233 165 165 255 231 134 125 213 301 180 182 200 183 174 170 179 231 214 251 98 237 243 12 80 85 112 133 132 140
332 332 322 311 293 293 183 147 210 212 250 270 278 214 267 265 197 163 214 217 223 178 186 181 264 138 174 135 141 177 186 194 125 99 353 220 278 277 157 166 134 139 148 141 143
340 335 310 314 308 316 95 236 241 219 302 100 209 183 215 222 184 186 214 200 236 194 104 227 293 192 153 121 42 174 165 95 3 241 241 269 268 240 231 224 186 184 174 158 151
340 325 273 291 310 243 205 230 272 283 247 207 230 265 229 228 206 207 245 254 208 169 184 161 172 238 128 200 180 156 209 187 185 166 234 269 261 209 220 198 195 181 177 168 161
343 325 271 288 287 141 213 219 316 302 337 271 222 217 213 210 236 224 224 216 180 160 177 210 177 241 225 229 210 193 193 174 202 234 232 250 264 303 251 213 167 164 171 169 167
326 277 275 217 213 238 282 287 264 266 246 239 261 204 175 236 265 212 224 237 197 173 188 183 224 283 308 18 345 221 201 207 280 35 247 249 259 100 48 181 174 160 175 173 171
323 316 314 311 22 350 342 301 288 335 278 275 267 258 221 236 229 276 248 270 222 215 234 157 206 199 241 230 125 191 211 211 218 242 262 247 269 259 213 214 192 185 180 175 171
18 350 21 342 354 338 339 313 311 330 346 317 255 40 1 293 289 252 261 307 234 272 259 182 258 270 279 276 281 271 263 248 231 245 249 263 252 259 244 212 200 184 168 163 163
27 356 340 308 329 342 340 27 350 357 343 327 2 336 327 301 305 299 334 341 292 263 264 204 262 263 263 265 264 262 252 252 250 253 254 255 255 253 268 160 154 172 166 161 162
9 5 350 300 334 334 353 15 339 332 265 292 296 300 296 294 301 290 274 264 253 267 282 249 238 237 254 265 264 254 245 245 246 249 247 249 260 343 76 74 129 150 150 137 140
Wind_Speed_850mb
6 2 2 5 6 6 7 8 8 8 8 10 15 19 18 16 13 13 9 9 8 5 6 9 12 9 7 7 6 7 5 5 8 10 7 12 10 10 8 12 19 21 21 14 13
9 5 2 4 6 6 7 7 7 8 7 8 12 18 18 16 15 17 10 7 2 6 9 12 12 7 6 8 6 7 6 13 9 9 7 8 13 9 8 14 18 32 37 31 25
11 7 4 5 5 6 7 8 7 6 4 4 10 13 10 10 11 6 6 4 3 5 10 12 11 8 6 6 7 6 9 6 7 14 10 8 7 15 12 12 35 39 47 43 37
14 8 5 4 5 7 9 7 6 5 5 5 8 13 12 9 3 4 6 5 4 5 12 13 11 6 6 7 8 3 12 9 6 13 10 7 7 9 35 35 13 13 26 37 46
21 15 11 8 8 9 9 6 6 7 10 9 13 16 13 10 13 10 8 8 7 7 13 15 14 10 6 8 7 7 6 10 12 13 17 13 20 16 39 49 47 34 28 32 40
26 19 15 11 11 10 9 9 9 11 12 18 21 18 13 9 9 8 9 9 9 9 10 16 10 13 6 7 9 8 8 13 13 15 15 9 7 3 15 8 33 48 47 41 43
35 26 20 16 14 13 11 12 13 13 13 17 17 16 19 23 13 9 7 11 9 8 8 10 12 12 8 3 5 2 9 8 13 9 7 6 12 19 39 16 17 25 31 38 42
41 36 28 18 12 11 13 16 17 19 17 13 12 15 15 15 19 15 9 10 11 8 7 8 7 8 4 3 6 3 4 5 4 11 4 7 17 11 7 21 37 32 30 35 45
39 39 36 21 10 11 15 17 19 21 23 23 23 15 14 12 20 18 12 7 13 10 9 8 8 5 5 6 7 7 6 7 13 14 5 8 16 12 8 20 39 42 43 40 41
39 38 37 26 13 21 14 14 18 21 21 23 24 12 20 10 14 15 13 10 11 11 7 8 4 4 5 6 9 9 7 8 9 6 6 8 34 36 45 50 56 55 61 56 49
38 36 35 32 16 22 17 10 6 7 18 19 10 9 5 13 12 13 15 12 12 9 8 2 4 15 19 15 3 3 6 9 8 5 6 14 27 37 41 39 38 59 59 59 56
39 37 34 29 18 20 16 8 8 9 18 31 42 33 21 14 9 18 19 14 11 10 8 4 16 9 6 8 7 6 4 11 10 3 7 11 28 33 41 19 29 28 22 28 39
42 40 36 30 17 16 13 14 16 18 7 10 16 16 15 20 11 15 21 11 8 10 12 12 4 8 7 6 7 7 10 9 11 7 4 12 15 10 7 5 10 18 17 14 35
42 41 39 33 10 22 11 20 20 16 7 9 6 5 11 11 6 14 20 9 3 13 12 11 2 10 7 10 14 7 10 6 2 5 7 6 13 10 13 16 8 15 15 11 22
42 41 39 33 24 18 17 20 17 7 8 4 6 8 10 10 5 9 16 11 9 11 10 13 14 10 10 14 16 12 5 7 4 4 5 3 4 13 4 9 1 10 5 4 13
42 41 39 35 26 14 17 16 7 10 13 3 6 4 4 7 5 8 7 8 3 4 5 12 2 11 14 5 8 12 9 9 7 5 4 11 12 8 8 10 6 2 5 6 8
44 41 40 33 19 18 14 8 8 8 5 5 6 6 6 9 7 11 10 8 11 3 9 4 9 4 7 8 2 5 9 5 5 1 12 5 5 16 8 6 3 2 4 7 13
46 41 39 28 23 14 7 7 9 9 12 5 3 3 10 11 7 7 5 7 11 4 3 9 13 16 11 12 14 12 14 10 15 8 7 3 14 11 1 9 9 11 11 13 16
48 42 37 25 9 6 5 4 15 14 5 3 2 6 6 3 7 5 12 11 14 20 18 12 13 3 4 4 4 9 10 5 2 4 4 9 13 13 7 4 7 11 16 15 18
51 41 20 5 5 6 5 11 10 8 3 1 10 12 13 7 6 7 10 8 9 19 2 5 11 5 7 6 4 8 7 6 3 7 12 10 12 14 12 21 16 16 19 20 21
47 21 8 6 11 7 7 14 11 13 7 10 8 9 13 8 12 11 10 8 12 7 7 10 9 6 10 15 20 5 6 3 5 8 12 21 18 11 11 16 29 20 30 30 28
22 6 14 30 4 1 4 7 7 7 4 10 5 13 13 14 13 16 20 19 22 19 16 14 10 16 25 4 5 10 19 19 12 15 11 5 37 1 5 9 26 32 38 36 32
23 16 8 4 4 5 8 8 8 7 10 5 5 11 3 8 9 16 14 16 24 18 16 14 8 10 13 4 6 10 10 10 1 5 45 26 28 2 1 4 17 39 45 42 40
12 7 11 4 4 5 7 10 8 10 10 8 7 6 9 17 15 14 8 9 14 17 14 19 13 17 34 14 9 9 13 16 27 21 29 39 49 44 14 19 21 34 49 41 38
10 7 15 8 12 22 18 11 22 15 24 25 4 27 17 10 7 12 10 10 8 8 6 7 18 11 31 35 23 37 41 42 39 40 35 46 39 55 32 31 40 45 43 42 41
13 14 18 21 32 19 10 3 14 13 17 13 15 38 31 14 24 13 17 10 12 4 27 12 20 32 43 54 46 51 52 51 47 52 46 56 60 53 22 16 36 53 54 47 46
19 10 4 12 13 8 7 13 17 21 14 17 26 25 25 25 39 54 55 48 42 33 29 11 7 13 40 34 29 31 45 51 45 43 32 48 52 14 5 14 15 33 38 43 46
Wind_Direction_850mb
57 102 216 244 267 275 270 276 268 258 261 263 277 293 299 297 266 284 277 286 276 218 173 174 171 175 177 184 174 145 76 231 235 163 241 170 193 197 213 216 207 210 224 217 199
41 36 338 287 282 270 267 267 257 250 261 281 296 298 292 291 265 263 284 293 265 191 188 178 175 183 183 178 178 127 148 220 201 194 218 200 199 200 200 219 234 232 231 228 221
22 7 328 286 267 264 266 256 242 237 247 289 314 313 298 304 288 246 257 273 251 199 191 190 195 193 190 191 201 168 207 208 239 219 208 207 234 220 205 240 230 231 234 226 221
17 4 335 296 280 274 261 245 234 226 230 284 317 329 305 299 246 234 268 241 231 213 195 196 196 186 169 204 188 218 241 202 226 211 187 202 229 243 218 240 236 251 244 230 223
14 1 347 327 292 266 258 245 235 252 241 260 302 313 307 271 258 269 254 232 231 227 210 205 205 195 199 195 172 198 244 224 242 228 229 241 243 245 259 257 251 248 233 235 232
14 5 347 317 287 269 259 248 253 269 260 267 288 297 280 253 240 259 246 237 236 229 222 211 219 213 216 204 182 205 254 256 258 241 236 219 245 205 265 257 229 237 242 239 233
18 7 349 318 288 270 259 258 263 266 275 285 283 291 268 260 239 249 255 227 223 222 228 211 208 198 182 204 233 267 310 302 219 213 240 194 275 233 251 249 222 224 229 230 227
14 10 358 346 314 278 268 261 262 262 267 266 290 290 262 250 229 242 250 231 219 216 209 198 191 201 211 171 14 14 59 333 182 161 188 164 270 266 265 222 238 241 233 230 226
6 5 2 352 353 344 295 276 270 268 260 260 276 267 260 237 224 229 235 241 215 222 211 209 190 182 131 96 353 359 239 223 311 202 135 179 271 259 246 237 250 242 242 238 236
360 359 1 360 349 339 325 299 275 267 256 257 245 268 233 224 207 214 228 226 200 190 186 192 170 87 60 121 232 211 230 245 243 209 205 224 261 273 264 260 257 261 260 247 242
359 356 354 356 337 350 347 327 312 266 233 223 217 218 177 205 218 230 215 197 183 184 187 151 120 219 214 201 195 175 203 239 243 222 236 230 265 276 281 243 253 261 263 259 247
359 357 352 350 342 352 356 357 353 306 298 251 242 238 245 236 241 217 199 190 171 199 131 38 236 220 136 155 171 183 226 257 275 222 189 312 282 276 278 256 239 260 258 259 227
354 355 355 348 342 348 348 2 340 328 271 270 229 233 229 220 232 209 195 189 174 176 190 183 214 119 148 157 168 218 197 226 233 325 223 318 279 301 296 263 271 259 260 262 217
351 352 352 352 347 339 337 339 335 334 33 262 221 217 190 195 254 192 192 196 188 205 172 232 226 178 182 225 157 253 208 163 186 54 251 1 289 296 285 305 283 313 228 248 214
346 345 347 348 333 325 322 328 331 350 347 195 179 172 184 191 152 205 192 189 207 193 143 247 171 179 189 217 165 224 135 143 102 149 12 253 255 266 288 294 23 3 82 229 208
341 339 338 337 326 317 318 324 327 44 254 227 150 172 157 209 219 151 177 198 149 176 243 245 222 182 207 134 168 140 89 57 59 103 262 213 190 268 205 209 191 91 76 77 164
338 337 333 328 318 309 312 312 30 161 327 202 218 175 213 207 219 180 173 186 192 181 245 262 218 206 169 111 51 136 92 308 303 226 234 154 187 257 260 232 266 291 118 108 142
335 335 330 317 306 297 291 54 206 240 249 317 95 155 215 160 233 165 165 255 231 134 125 213 301 180 182 200 183 174 170 179 231 214 251 98 237 243 12 80 85 112 133 132 140
332 332 322 311 293 293 183 147 210 212 250 270 278 214 267 265 197 163 214 217 223 178 186 181 264 138 174 135 141 177 186 194 125 99 353 220 278 277 157 166 134 139 148 141 143
340 335 310 314 308 316 95 236 241 219 302 100 209 183 215 222 184 186 214 200 236 194 104 227 293 192 153 121 42 174 165 95 3 241 241 269 268 240 231 224 186 184 174 158 151
340 325 273 291 310 243 205 230 272 283 247 207 230 265 229 228 206 207 245 254 208 169 184 161 172 238 128 200 180 156 209 187 185 166 234 269 261 209 220 198 195 181 177 168 161
343 325 271 288 287 141 213 219 316 302 337 271 222 217 213 210 236 224 224 216 180 160 177 210 177 241 225 229 210 193 193 174 202 234 232 250 264 303 251 213 167 164 171 169 167
326 277 275 217 213 238 282 287 264 266 246 239 261 204 175 236 265 212 224 237 197 173 188 183 224 283 308 18 345 221 201 207 280 35 247 249 259 100 48 181 174 160 175 173 171
323 316 314 311 22 350 342 301 288 335 278 275 267 258 221 236 229 276 248 270 222 215 234 157 206 199 241 230 125 191 211 211 218 242 262 247 269 259 213 214 192 185 180 175 171
18 350 21 342 354 338 339 313 311 330 346 317 255 40 1 293 289 252 261 307 234 272 259 182 258 270 279 276 281 271 263 248 231 245 249 263 252 259 244 212 200 184 168 163 163
27 356 340 308 329 342 340 27 350 357 343 327 2 336 327 301 305 299 334 341 292 263 264 204 262 263 263 265 264 262 252 252 250 253 254 255 255 253 268 160 154 172 166 161 162
9 5 350 300 334 334 353 15 339 332 265 292 296 300 296 294 301 290 274 264 253 267 282 249 238 237 254 265 264 254 245 245 246 249 247 249 260 343 76 74 129 150 150 137 140